Change the Weather History Date:

Friday, January 10, 2014

  Actual Average Record
Temperature  
Mean Temperature -14 °F -  
Max Temperature -4 °F -1 °F 33 °F (2011)
Min Temperature -23 °F -13 °F -32 °F (2008)
Degree Days  
Heating Degree Days 78    
Moisture  
Dew Point -19 °F    
Average Humidity 62    
Maximum Humidity 71    
Minimum Humidity 54    
Precipitation  
Precipitation 0.00 in - - ()
Sea Level Pressure  
Sea Level Pressure 29.57 in    
Wind  
Wind Speed 10 mph (NE)    
Max Wind Speed 17 mph    
Max Gust Speed 22 mph    
Visibility 8 miles    
Events      
Averages and records for this station are not official NWS values.
T = Trace of Precipitation, MM = Missing Value Source: NWS Daily Summary

Daily Weather History Graph

Daily Weather History Graph

Search for Another Location

Airport or City:

Trip Planner

Search our weather history database for the weather conditions in past years. The results will help you decide how hot, cold, wet, or windy it might be!

Date:

Astronomy

Jan. 10, 2014 Rise Set
Actual Time 12:07 PM AKST 2:22 PM AKST
Civil Twilight 10:11 AM AKST 4:18 PM AKST
Nautical Twilight 8:48 AM AKST 5:41 PM AKST
Astronomical Twilight 7:39 AM AKST 6:50 PM AKST
Moon 11:51 AM AKST (1/10) 6:00 AM AKST (1/10)
Length of Visible Light 6h 06m
Length of Day
2h 14m
Waxing Gibbous, 76% of the Moon is Illuminated
Jan 10
Waxing Gibbous
Jan 15
Full
Jan 23
Last Quarter
Jan 30
New
Feb 6
First Quarter

Hourly Weather History & Observations

Time (AKST) Temp. Windchill Dew Point Humidity Pressure Visibility Wind Dir Wind Speed Gust Speed Precip Events Conditions
12:16 AM -23.8 °F -44.5 °F - N/A% 29.60 in 10.0 mi North 9.2 mph - N/A   Overcast
12:36 AM -22.0 °F -42.3 °F - N/A% 29.60 in 10.0 mi North 9.2 mph - N/A   Scattered Clouds
12:56 AM -20.2 °F -41.3 °F - N/A% 29.60 in 10.0 mi NNE 10.4 mph - N/A   Clear
1:16 AM -20.2 °F -40.1 °F - N/A% 29.59 in 10.0 mi NNE 9.2 mph - N/A   Clear
1:36 AM -20.2 °F -40.1 °F -29.2 °F 63% 29.59 in 10.0 mi North 9.2 mph - N/A   Clear
1:56 AM -18.4 °F -37.9 °F -29.2 °F 58% 29.59 in 10.0 mi North 9.2 mph - N/A   Clear
2:16 AM -18.4 °F -36.6 °F -27.4 °F 63% 29.60 in 10.0 mi NNE 8.1 mph - N/A   Clear
2:36 AM -18.4 °F -37.9 °F -27.4 °F 63% 29.60 in 10.0 mi NNE 9.2 mph - N/A   Clear
2:56 AM -18.4 °F -35.1 °F -27.4 °F 63% 29.60 in 10.0 mi NNE 6.9 mph - N/A   Clear
3:16 AM -16.6 °F -34.4 °F -27.4 °F 58% 29.60 in 10.0 mi NNE 8.1 mph - N/A   Clear
3:36 AM -16.6 °F -34.4 °F -25.6 °F 64% 29.60 in 10.0 mi NNE 8.1 mph - N/A   Clear
3:56 AM -13.0 °F -30.0 °F -20.2 °F 70% 29.60 in 10.0 mi NNE 8.1 mph - N/A   Clear
4:16 AM -13.0 °F -31.3 °F -23.8 °F 59% 29.59 in 10.0 mi NE 9.2 mph - N/A   Clear
4:36 AM -13.0 °F -31.3 °F -23.8 °F 59% 29.60 in 10.0 mi NE 9.2 mph - N/A   Clear
4:56 AM -13.0 °F -32.4 °F -23.8 °F 59% 29.60 in 10.0 mi NE 10.4 mph - N/A   Clear
5:16 AM -11.2 °F -29.0 °F -20.2 °F 64% 29.60 in 10.0 mi NE 9.2 mph - N/A   Mostly Cloudy
5:36 AM -11.2 °F -30.1 °F -22.0 °F 59% 29.60 in 10.0 mi NE 10.4 mph - N/A   Mostly Cloudy
5:56 AM -11.2 °F -30.1 °F -20.2 °F 64% 29.59 in 10.0 mi ENE 10.4 mph - N/A   Partly Cloudy
6:16 AM -9.4 °F -31.4 °F -16.6 °F 71% 29.59 in 10.0 mi ENE 15.0 mph - N/A   Mostly Cloudy
6:36 AM -7.6 °F -26.6 °F -16.6 °F 65% 29.59 in 10.0 mi NE 11.5 mph - N/A   Overcast
6:56 AM -7.6 °F -25.7 °F -16.6 °F 65% 29.59 in 10.0 mi ENE 10.4 mph - N/A   Overcast
7:16 AM -7.6 °F -24.6 °F -18.4 °F 59% 29.59 in 10.0 mi ENE 9.2 mph - N/A   Overcast
7:36 AM -7.6 °F -25.7 °F -16.6 °F 65% 29.59 in 10.0 mi NE 10.4 mph - N/A   Overcast
7:56 AM -5.8 °F -22.4 °F -14.8 °F 65% 29.59 in 10.0 mi NE 9.2 mph - N/A   Overcast
8:16 AM -5.8 °F -22.4 °F -14.8 °F 65% 29.58 in 10.0 mi NNE 9.2 mph - N/A   Overcast
8:36 AM -5.8 °F -26.0 °F -14.8 °F 65% 29.58 in 9.0 mi NNE 13.8 mph - N/A   Overcast
8:56 AM -5.8 °F -25.2 °F -14.8 °F 65% 29.58 in 8.0 mi NNE 12.7 mph 17.3 mph N/A   Overcast
9:16 AM -5.8 °F -24.4 °F -14.8 °F 65% 29.58 in 8.0 mi NE 11.5 mph - N/A   Overcast
9:36 AM -5.8 °F -25.2 °F -14.8 °F 65% 29.58 in 9.0 mi North 12.7 mph - N/A   Overcast
9:56 AM -5.8 °F -25.2 °F -14.8 °F 65% 29.58 in 8.0 mi NNE 12.7 mph 18.4 mph N/A   Overcast
10:16 AM -4.0 °F -22.1 °F -14.8 °F 60% 29.58 in 7.0 mi NNE 11.5 mph - N/A   Overcast
10:36 AM -4.0 °F -23.7 °F -14.8 °F 60% 29.58 in 8.0 mi NE 13.8 mph 21.9 mph N/A   Overcast
10:56 AM -4.0 °F -23.7 °F -14.8 °F 60% 29.58 in 10.0 mi NE 13.8 mph 18.4 mph N/A   Overcast
11:16 AM -4.0 °F -21.2 °F -14.8 °F 60% 29.59 in 10.0 mi NE 10.4 mph - N/A   Overcast
11:36 AM -4.0 °F -21.2 °F -14.8 °F 60% 29.59 in 8.0 mi NE 10.4 mph 16.1 mph N/A   Overcast
11:56 AM -4.0 °F -22.1 °F -14.8 °F 60% 29.58 in 6.0 mi NE 11.5 mph 18.4 mph N/A   Overcast
12:16 PM -4.0 °F -25.8 °F -14.8 °F 60% 29.58 in 4.0 mi ENE 17.3 mph 21.9 mph N/A   Overcast
12:36 PM -4.0 °F -23.0 °F -14.8 °F 60% 29.58 in 5.0 mi ENE 12.7 mph 20.7 mph N/A   Overcast
12:56 PM -5.8 °F -26.0 °F -14.8 °F 65% 29.58 in 7.0 mi NE 13.8 mph 19.6 mph N/A   Overcast
1:16 PM -5.8 °F -26.8 °F -14.8 °F 65% 29.58 in 6.0 mi NE 15.0 mph 19.6 mph N/A   Overcast
1:36 PM -5.8 °F -25.2 °F -16.6 °F 60% 29.58 in 5.0 mi NNE 12.7 mph - N/A   Overcast
1:56 PM -5.8 °F -25.2 °F -16.6 °F 60% 29.58 in 5.0 mi NNE 12.7 mph - N/A   Overcast
2:16 PM -5.8 °F -25.2 °F -16.6 °F 60% 29.58 in 5.0 mi NE 12.7 mph - N/A   Overcast
2:36 PM -5.8 °F -24.4 °F -14.8 °F 65% 29.58 in 6.0 mi NNE 11.5 mph - N/A   Overcast
2:56 PM -5.8 °F -23.4 °F -14.8 °F 65% 29.58 in 2.5 mi NNE 10.4 mph - N/A   Overcast
3:16 PM -5.8 °F -26.8 °F -14.8 °F 65% 29.57 in 1.2 mi NE 15.0 mph - N/A   Overcast
3:36 PM -4.0 °F -23.7 °F -14.8 °F 60% 29.58 in 0.8 mi NE 13.8 mph - N/A   Overcast
3:56 PM -4.0 °F -23.7 °F -14.8 °F 60% 29.57 in 1.5 mi NE 13.8 mph 17.3 mph N/A   Overcast
4:16 PM -5.8 °F -24.4 °F -14.8 °F 65% 29.57 in 1.8 mi NNE 11.5 mph - N/A   Overcast
4:36 PM -4.0 °F -22.1 °F -14.8 °F 60% 29.56 in 2.5 mi NNE 11.5 mph - N/A   Overcast
4:56 PM -5.8 °F -23.4 °F -14.8 °F 65% 29.56 in 3.0 mi NNE 10.4 mph - N/A   Overcast
5:16 PM -5.8 °F -23.4 °F -14.8 °F 65% 29.56 in 2.5 mi NNE 10.4 mph - N/A   Overcast
5:36 PM -5.8 °F -24.4 °F -16.6 °F 60% 29.56 in 2.0 mi NNE 11.5 mph - N/A   Overcast
5:56 PM -5.8 °F -23.4 °F -16.6 °F 60% 29.56 in 2.0 mi NNE 10.4 mph 16.1 mph N/A   Overcast
6:16 PM -5.8 °F -21.2 °F -16.6 °F 60% 29.56 in 2.5 mi NNE 8.1 mph - N/A   Overcast
6:36 PM -5.8 °F -24.4 °F -16.6 °F 60% 29.55 in 3.0 mi NE 11.5 mph - N/A   Overcast
6:56 PM -5.8 °F -23.4 °F -16.6 °F 60% 29.55 in 3.0 mi ENE 10.4 mph - N/A   Overcast
7:16 PM -7.6 °F -23.4 °F -16.6 °F 65% 29.55 in 4.0 mi NE 8.1 mph - N/A   Overcast
7:36 PM -7.6 °F -26.6 °F -18.4 °F 59% 29.54 in 6.0 mi NE 11.5 mph - N/A   Overcast
7:56 PM -7.6 °F -24.6 °F -18.4 °F 59% 29.54 in 8.0 mi ENE 9.2 mph - N/A   Overcast
8:16 PM -7.6 °F -27.5 °F -18.4 °F 59% 29.54 in 7.0 mi ENE 12.7 mph - N/A   Overcast
8:36 PM -7.6 °F -27.5 °F -18.4 °F 59% 29.54 in 8.0 mi ENE 12.7 mph - N/A   Overcast
8:56 PM -9.4 °F -29.8 °F -20.2 °F 59% 29.53 in 10.0 mi NE 12.7 mph 18.4 mph N/A   Overcast
9:16 PM -9.4 °F -27.9 °F -18.4 °F 65% 29.53 in 10.0 mi NE 10.4 mph - N/A   Mostly Cloudy
9:36 PM -9.4 °F -28.9 °F -22.0 °F 54% 29.53 in 10.0 mi ENE 11.5 mph - N/A   Partly Cloudy
9:56 PM -9.4 °F -29.8 °F -20.2 °F 59% 29.52 in 10.0 mi NE 12.7 mph - N/A   Clear
10:16 PM -11.2 °F -31.1 °F -22.0 °F 59% 29.52 in 10.0 mi ENE 11.5 mph - N/A   Clear
10:36 PM -11.2 °F -29.0 °F -23.8 °F 54% 29.51 in 10.0 mi NE 9.2 mph - N/A   Clear
10:56 PM -11.2 °F -26.4 °F -23.8 °F 54% 29.50 in 10.0 mi NE 6.9 mph - N/A   Clear
11:16 PM -11.2 °F -31.1 °F -20.2 °F 64% 29.49 in 10.0 mi ENE 11.5 mph - N/A   Clear
11:36 PM -11.2 °F -29.0 °F -23.8 °F 54% 29.49 in 10.0 mi ENE 9.2 mph - N/A   Clear
11:56 PM -11.2 °F -29.0 °F -23.8 °F 54% 29.49 in 10.0 mi ENE 9.2 mph - N/A   Clear